Terminal Aerodrome Forecast
Issued by NWS Upton, NY

Home | Current Version | Previous Version | Text Only | Print | Product List | Glossary On
Versions: 1 2 3 4 5 6 7 8 9 10 11 12 13 14 15 16 17 18 19 20 21 22 23 24 25 26 27
000
FTUS41 KOKX 261700
TAFBDR
TAF
KBDR 261731Z 2618/2718 22008KT P6SM SCT040 BKN100
     FM270100 21005KT P6SM FEW015 BKN040 BKN100
     FM271100 17007KT 5SM SHRA BR SCT015 BKN040
     FM271600 20009KT P6SM SCT040 SCT100=

USA.gov is the U.S. government's official web portal to all federal, state and local government web resources and services.